Flag for U.S.A. Weather past 2 weeks in Anderson, South Carolina, U.S.A.

Now
73 °F

Sunny.


Feels Like: 77 °F
Forecast: 54 / 83 °F
Wind: 5 mph from West

Location: Anderson County Airport

Current Time: May 22, 2015 at 8:35:22 PM

Latest Report: May 22, 2015 at 7:56 PM


Visibility: 10 mi

Pressure: 30.19 "Hg

Humidity: 46%

Dew point: 51 °F

Location of AndersonLocation

Historic Weather in Anderson — Graph

°F

Anderson temperature yesterday

Maximum temperature yesterday: 85 °F (at 2:56 PM)
Minimum temperature yesterday: 63 °F (at 11:56 PM)
Average temperature yesterday: 76 °F

Past Weeks' High & Low Weather Summary

 TemperatureHumidityPressure
High90 °F (May 11, 3:56 PM)97% (May 20, 2:56 AM)30.34 "Hg (May 20, 2:56 AM)
Low56 °F (May 22, 4:56 AM)23% (May 13, 4:56 PM)29.80 "Hg (May 21, 5:56 AM)
Average74 °F64%30.10 "Hg
* Reported May 7 6:56 PM — May 22 6:56 PM, Anderson, Weather by CustomWeather, © 2015

Note: Actual official high and low records may vary slightly from our data, if they occured in-between our weather recording intervals... More about our weather records

Advertising

Anderson weather history for previous 24 hours

 ConditionsComfort  
Time TempWeatherWind HumidityBarometerVisibility
6:56 PM
Fri, May 22
76 °FSunny.7 mph37%30.17 "Hg10 mi
5:56 PM76 °FSunny.6 mph32%30.18 "Hg10 mi
4:56 PM76 °FSunny.5 mph32%30.17 "Hg10 mi
3:56 PM76 °FSunny.3 mph33%30.17 "Hg10 mi
2:56 PM75 °FSunny.6 mph33%30.17 "Hg10 mi
1:56 PM73 °FSunny.6 mph40%30.19 "Hg10 mi
12:56 PM71 °FSunny.N/A42%30.19 "Hg10 mi
11:56 AM71 °FSunny.6 mph41%30.21 "Hg10 mi
10:56 AM68 °FSunny.10 mph45%30.21 "Hg10 mi
9:56 AM66 °FSunny.13 mph47%30.19 "Hg10 mi
8:56 AM62 °FSunny.12 mph52%30.17 "Hg10 mi
7:56 AM58 °FOvercast.9 mph58%30.15 "Hg10 mi
6:56 AM57 °FPassing clouds.9 mph62%30.11 "Hg10 mi
5:56 AM56 °FPassing clouds.5 mph67%30.07 "Hg10 mi
4:56 AM56 °FClear.6 mph67%30.04 "Hg10 mi
3:56 AM58 °FPassing clouds.5 mph67%30.02 "Hg10 mi
2:56 AM60 °FClear.5 mph65%30.01 "Hg10 mi
1:56 AM61 °FClear.3 mph62%30.00 "Hg10 mi
12:56 AM63 °FClear.7 mph58%30.00 "Hg10 mi
11:56 PM
Thu, May 21
63 °FClear.8 mph65%29.99 "Hg10 mi
10:56 PM65 °FClear.12 mph61%29.96 "Hg10 mi
9:56 PM68 °FClear.10 mph57%29.93 "Hg10 mi
8:56 PM72 °FSunny.17 mph49%29.90 "Hg10 mi
Weather by CustomWeather, © 2015

See weather overviewHow to use our weather pages